Location: Kumla
(59.1265°N, 15.1401°E)
Time: 02:58:53
(UTC+01:00)

Altair - Pass Details

Date: 12 December 2023
Orbit: 1501 x 1682 km, 47.2° (Epoch: 23 February)

Event Time Altitude Azimuth Distance (km) Brightness Sun altitude
Rises 05:14:03 0° 190° (S) 4,869 10.1 -24.6°
Reaches altitude 10° 05:18:36 10° 172° (S) 3,855 9.7 -24.0°
Maximum altitude 05:24:21 17° 136° (SE) 3,253 9.8 -23.3°
Drops below altitude 10° 05:29:59 10° 99° (E) 3,777 10.7 -22.5°
Sets 05:34:20 0° 81° (E) 4,730 11.4 -22.0°
